K0NV Weather Reports


time (UTC)temp
F
wind
direction
speed
knots
gust
knots
rain 1hr
in
rain 24hr
in
rain mn
in
humidity
%
barometer
mb
20260510203149 70 265 0.0 0.9 0.00 0.00 0.00 47 1020.5
20260510202643 70 272 0.0 0.9 0.00 0.00 0.00 49 1020.5
20260510202138 71 44 0.0 0.9 0.00 0.00 0.00 47 1020.6
20260510201636 70 352 0.0 0.9 0.00 0.00 0.00 48 1020.3
20260510201133 70 332 4.3 6.1 0.00 0.00 0.00 47 1020.7
20260510200629 71 50 2.6 4.3 0.00 0.00 0.00 48 1020.6
20260510200126 71 354 2.6 4.3 0.00 0.00 0.00 47 1020.7
20260510195623 71 32 3.5 4.3 0.00 0.00 0.00 47 1020.8
20260510195114 71 42 0.9 1.7 0.00 0.00 0.00 46 1020.7
20260510194614 71 180 1.7 4.3 0.00 0.00 0.00 48 1020.7
20260510194111 71 35 5.2 7.8 0.00 0.00 0.00 46 1020.7
20260510193611 71 351 0.9 1.7 0.00 0.00 0.00 48 1020.6
20260510193107 71 248 0.9 1.7 0.00 0.00 0.00 46 1020.7
20260510192602 72 63 2.6 2.6 0.00 0.00 0.00 47 1021.0
20260510192057 71 298 0.0 0.0 0.00 0.00 0.00 46 1020.9
20260510191554 71 259 1.7 1.7 0.00 0.00 0.00 46 1020.8
20260510191050 70 261 4.3 6.1 0.00 0.00 0.00 48 1020.7
20260510190542 71 309 0.9 2.6 0.00 0.00 0.00 45 1020.8
20260510190040 71 1 2.6 4.3 0.00 0.00 0.00 46 1021.0
20260510185536 71 275 1.7 2.6 0.00 0.00 0.00 47 1020.9
20260510185034 71 37 0.9 1.7 0.00 0.00 0.00 45 1020.8
20260510184531 71 48 3.5 6.1 0.00 0.00 0.00 47 1020.9
20260510184026 71 38 2.6 4.3 0.00 0.00 0.00 46 1020.8
20260510183522 71 40 1.7 2.6 0.00 0.00 0.00 47 1020.9
20260510183017 71 329 0.9 2.6 0.00 0.00 0.00 46 1020.9
20260510182514 71 36 2.6 4.3 0.00 0.00 0.00 48 1020.9
20260510182009 70 244 0.0 0.0 0.00 0.00 0.00 47 1020.8
20260510181508 71 307 0.9 1.7 0.00 0.00 0.00 49 1020.9
20260510181003 71 75 0.9 2.6 0.00 0.00 0.00 48 1020.7
20260510180501 70 296 2.6 4.3 0.00 0.00 0.00 49 1020.4
20260510175957 70 235 0.0 0.0 0.00 0.00 0.00 48 1020.7
20260510175453 69 256 1.7 2.6 0.00 0.00 0.00 49 1020.4
20260510174948 69 26 2.6 2.6 0.00 0.00 0.00 50 1020.6
20260510174447 69 210 0.0 0.0 0.00 0.00 0.00 51 1020.4
20260510173944 69 49 0.0 0.0 0.00 0.00 0.00 54 1020.4
20260510173440 69 45 5.2 7.8 0.00 0.00 0.00 51 1020.3
20260510172936 69 70 2.6 4.3 0.00 0.00 0.00 53 1020.5
20260510172432 68 35 2.6 2.6 0.00 0.00 0.00 54 1020.4
20260510171928 68 227 2.6 4.3 0.00 0.00 0.00 55 1020.3
20260510171426 68 42 3.5 4.3 0.00 0.00 0.00 55 1020.3
20260510170922 68 46 2.6 4.3 0.00 0.00 0.00 56 1020.4
20260510170419 67 38 2.6 4.3 0.00 0.00 0.00 57 1020.4
20260510165914 68 123 0.9 1.7 0.00 0.00 0.00 56 1020.3
20260510165410 67 319 0.9 0.9 0.00 0.00 0.00 59 1020.3
20260510164908 67 47 1.7 2.6 0.00 0.00 0.00 59 1020.5
20260510164404 67 24 3.5 4.3 0.00 0.00 0.00 57 1020.2
20260510163859 67 55 5.2 7.0 0.00 0.00 0.00 60 1020.2
20260510163355 68 45 4.3 6.1 0.00 0.00 0.00 59 1020.2
20260510162849 67 42 4.3 7.0 0.00 0.00 0.00 60 1020.1
20260510162347 66 89 0.9 0.9 0.00 0.00 0.00 61 1020.0
20260510161843 66 31 1.7 2.6 0.00 0.00 0.00 63 1020.1
20260510161339 66 22 0.9 1.7 0.00 0.00 0.00 63 1020.0
20260510160836 65 9 2.6 4.3 0.00 0.00 0.00 65 1019.9
20260510160332 65 188 2.6 4.3 0.00 0.00 0.00 65 1019.8
20260510155826 64 40 0.9 1.7 0.00 0.00 0.00 66 1019.8
20260510155318 65 28 2.6 4.3 0.00 0.00 0.00 65 1019.7
20260510154814 65 300 0.9 0.9 0.00 0.00 0.00 67 1019.6
20260510154310 65 65 1.7 2.6 0.00 0.00 0.00 66 1019.3
20260510153804 64 53 2.6 4.3 0.00 0.00 0.00 68 1019.7
20260510153301 65 19 2.6 4.3 0.00 0.00 0.00 68 1019.7
20260510152757 65 341 0.9 1.7 0.00 0.00 0.00 69 1019.5
20260510152254 64 240 0.0 0.0 0.00 0.00 0.00 69 1019.2
20260510151750 64 31 0.0 0.0 0.00 0.00 0.00 70 1019.5
20260510151249 64 4 0.9 1.7 0.00 0.00 0.00 71 1019.5
20260510150744 64 102 0.0 0.0 0.00 0.00 0.00 72 1019.3
20260510150240 64 36 0.9 0.9 0.00 0.00 0.00 72 1019.8
20260510145736 64 352 0.0 0.0 0.00 0.00 0.00 72 1019.8
20260510145233 64 92 0.0 0.0 0.00 0.00 0.00 73 1019.8
20260510144729 64 33 2.6 4.3 0.00 0.00 0.00 73 1019.9
20260510144227 64 33 3.5 5.2 0.00 0.00 0.00 73 1019.6
20260510143720 64 69 0.9 1.7 0.00 0.00 0.00 73 1019.6
20260510143217 64 19 1.7 2.6 0.00 0.00 0.00 72 1019.7
20260510142714 64 345 0.9 1.7 0.00 0.00 0.00 73 1019.9
20260510142210 65 59 0.0 0.9 0.00 0.00 0.00 73 1019.6
20260510141707 64 58 2.6 2.6 0.00 0.00 0.00 74 1019.5
20260510141206 64 73 0.0 0.9 0.00 0.00 0.00 74 1019.6
20260510140702 64 348 3.5 5.2 0.00 0.00 0.00 74 1019.3
20260510140202 64 30 4.3 5.2 0.00 0.00 0.00 75 1019.1
20260510135656 64 40 2.6 5.2 0.00 0.00 0.00 73 1019.0
20260510135153 64 9 0.0 0.0 0.00 0.00 0.00 73 1019.2
20260510134650 65 25 0.9 0.9 0.00 0.00 0.00 72 1019.1
20260510134147 64 348 3.5 6.1 0.00 0.00 0.00 72 1019.0
20260510133643 65 2 5.2 7.8 0.00 0.00 0.00 72 1018.8
20260510133139 65 20 6.1 7.8 0.00 0.00 0.00 72 1018.8
20260510132635 64 31 0.0 1.7 0.00 0.00 0.00 73 1018.7
20260510132133 64 17 1.7 4.3 0.00 0.00 0.00 74 1018.6
20260510131630 63 328 4.3 5.2 0.00 0.00 0.00 75 1018.4
20260510131127 63 43 1.7 4.3 0.00 0.00 0.00 78 1018.2
20260510130624 62 43 3.5 5.2 0.00 0.00 0.00 78 1018.4
20260510130121 62 31 0.9 1.7 0.00 0.00 0.00 79 1018.2
20260510125617 62 67 5.2 6.1 0.00 0.00 0.00 79 1018.2
20260510125114 62 40 0.9 1.7 0.00 0.00 0.00 79 1017.9
20260510124611 62 45 3.5 4.3 0.00 0.00 0.00 78 1018.2
20260510124108 61 34 2.6 6.1 0.00 0.00 0.00 79 1017.9
20260510123603 61 37 0.0 0.0 0.00 0.00 0.00 80 1017.7
20260510123059 60 26 0.9 0.9 0.00 0.00 0.00 82 1017.8
20260510122555 60 37 1.7 2.6 0.00 0.00 0.00 84 1017.6
20260510122051 59 31 0.9 1.7 0.00 0.00 0.00 84 1017.5
20260510121549 60 318 0.0 0.9 0.00 0.00 0.00 84 1017.7
20260510121046 60 21 0.9 1.7 0.00 0.00 0.00 83 1017.3
20260510120544 59 36 1.7 1.7 0.00 0.00 0.00 83 1017.4
20260510120038 59 44 0.0 0.0 0.00 0.00 0.00 84 1017.3
20260510115536 58 40 1.7 1.7 0.00 0.00 0.00 84 1017.3
20260510115033 58 48 0.0 0.0 0.00 0.00 0.00 84 1017.3
20260510114528 58 12 0.0 0.0 0.00 0.00 0.00 83 1017.1
20260510114025 59 19 0.0 0.0 0.00 0.00 0.00 83 1017.1
20260510113520 59 52 0.9 1.7 0.00 0.00 0.00 83 1017.0
20260510113018 59 19 1.7 1.7 0.00 0.00 0.00 82 1016.7
20260510112514 59 56 0.9 1.7 0.00 0.00 0.00 82 1016.2
20260510112011 58 31 1.7 2.6 0.00 0.00 0.00 82 1016.5
20260510111508 59 45 0.0 0.0 0.00 0.00 0.00 82 1016.6
20260510111003 59 303 0.0 0.0 0.00 0.00 0.00 81 1016.4
20260510110500 59 22 0.0 0.0 0.00 0.00 0.00 81 1016.1
20260510105956 59 310 0.0 0.0 0.00 0.00 0.00 81 1016.0
20260510105451 59 359 0.0 0.0 0.00 0.00 0.00 82 1016.0
20260510104946 59 332 0.0 0.0 0.00 0.00 0.00 82 1016.2
20260510104443 59 272 0.0 0.0 0.00 0.00 0.00 81 1015.9
20260510103939 59 296 0.0 0.0 0.00 0.00 0.00 82 1016.1
20260510103437 59 284 0.0 0.0 0.00 0.00 0.00 82 1015.7
20260510102932 60 288 0.0 0.0 0.00 0.00 0.00 81 1015.9
20260510102428 60 284 0.0 0.0 0.00 0.00 0.00 80 1016.0
20260510101925 62 264 0.0 0.0 0.00 0.00 0.00 77 1016.1
20260510101423 61 344 0.0 0.0 0.00 0.00 0.00 72 1015.9
20260510100921 61 332 0.0 0.0 0.00 0.00 0.00 75 1015.9
20260510100417 62 332 0.0 0.0 0.00 0.00 0.00 74 1015.8
20260510095913 62 34 0.0 0.0 0.00 0.00 0.00 70 1015.7
20260510095409 62 170 0.0 0.0 0.00 0.00 0.00 72 1015.7
20260510094908 62 155 0.0 0.0 0.00 0.00 0.00 71 1015.3
20260510094403 60 197 0.0 0.0 0.00 0.00 0.00 76 1015.5
20260510093900 60 262 0.0 0.0 0.00 0.00 0.00 75 1015.8
20260510093355 61 266 0.0 0.0 0.00 0.00 0.00 77 1015.7
20260510092852 60 270 0.0 0.0 0.00 0.00 0.00 75 1015.3
20260510092349 60 290 0.0 0.0 0.00 0.00 0.00 78 1015.3
20260510091844 59 278 0.0 0.0 0.00 0.00 0.00 80 1015.2
20260510091341 60 278 0.0 0.0 0.00 0.00 0.00 81 1015.1
20260510090838 60 278 0.0 0.0 0.00 0.00 0.00 80 1015.3
20260510090334 61 256 0.0 0.0 0.00 0.00 0.00 80 1015.2
20260510085830 61 264 0.0 0.0 0.00 0.00 0.00 78 1014.9
20260510085324 61 146 0.0 0.0 0.00 0.00 0.00 77 1015.2
20260510084820 61 131 0.0 0.0 0.00 0.00 0.00 77 1014.8
20260510084318 61 278 0.0 0.0 0.00 0.00 0.00 76 1015.0
20260510083814 62 268 0.0 0.0 0.00 0.00 0.00 74 1014.9
20260510083311 62 275 0.0 0.0 0.00 0.00 0.00 73 1015.1
20260510082807 62 270 0.0 0.0 0.00 0.00 0.00 73 1015.0
20260510082306 62 275 0.0 0.0 0.00 0.00 0.00 72 1014.9
20260510081803 62 256 0.0 0.0 0.00 0.00 0.00 74 1014.8
20260510081259 63 152 0.0 0.0 0.00 0.00 0.00 74 1014.6
20260510080755 62 115 0.0 0.0 0.00 0.00 0.00 73 1014.8
20260510080250 62 154 0.0 0.0 0.00 0.00 0.00 73 1014.8
20260510075747 63 288 0.0 0.0 0.00 0.00 0.00 72 1015.1
20260510075245 63 288 0.0 0.0 0.00 0.00 0.00 70 1015.4
20260510074741 64 310 0.0 0.0 0.00 0.00 0.00 67 1015.1
20260510074238 64 293 0.0 0.0 0.00 0.00 0.00 67 1014.9
20260510073734 64 93 0.0 0.0 0.00 0.00 0.00 67 1014.9
20260510073230 63 72 0.0 0.0 0.00 0.00 0.00 69 1015.1
20260510072726 62 285 0.0 0.0 0.00 0.00 0.00 69 1015.0
20260510072223 62 259 0.0 0.0 0.00 0.00 0.00 71 1015.0
20260510071720 62 245 0.0 0.0 0.00 0.00 0.00 74 1014.8
20260510071216 62 353 0.0 0.0 0.00 0.00 0.00 73 1014.9
20260510070714 62 313 0.0 0.0 0.00 0.00 0.00 74 1015.0
20260510070211 62 273 0.0 0.0 0.00 0.00 0.00 72 1014.8
20260510065706 62 275 0.0 0.0 0.00 0.00 0.00 71 1015.0
20260510065203 62 278 0.0 0.0 0.00 0.00 0.00 72 1015.2
20260510064659 63 255 0.0 0.0 0.00 0.00 0.00 71 1015.0
20260510064157 63 270 0.0 0.0 0.00 0.00 0.00 69 1015.0
20260510063654 64 283 0.0 0.0 0.00 0.00 0.00 69 1014.8
20260510063150 64 259 0.0 0.0 0.00 0.00 0.00 67 1015.0
20260510062646 65 269 0.0 0.0 0.00 0.00 0.00 65 1014.9
20260510062142 66 268 0.0 0.0 0.00 0.00 0.00 66 1014.8
20260510061637 66 318 0.0 0.0 0.00 0.00 0.00 61 1014.7
20260510061135 67 250 0.0 0.0 0.00 0.00 0.00 59 1014.6
20260510060632 67 240 0.0 0.0 0.00 0.00 0.00 59 1014.6
20260510060128 67 250 0.0 0.0 0.00 0.00 0.00 59 1014.5
20260510055624 68 240 0.0 0.0 0.00 0.00 0.00 59 1014.9
20260510055123 68 241 0.0 0.0 0.00 0.00 0.00 58 1014.8
20260510054617 68 245 0.0 0.0 0.00 0.00 0.00 60 1014.7
20260510054112 68 248 0.0 0.0 0.00 0.00 0.00 60 1014.7
20260510053606 68 238 0.0 0.0 0.00 0.00 0.00 60 1014.7
20260510053104 68 243 0.0 0.0 0.00 0.00 0.00 60 1014.8
20260510052600 68 235 0.0 0.0 0.00 0.00 0.00 60 1014.8
20260510052056 68 238 0.0 0.0 0.00 0.00 0.00 60 1014.7
20260510051551 68 232 0.0 0.0 0.00 0.00 0.00 61 1014.6
20260510051048 67 224 0.0 0.0 0.00 0.00 0.00 61 1014.7
20260510050540 67 237 0.0 0.0 0.00 0.00 0.00 63 1014.6
20260510050037 68 241 0.0 0.0 0.00 0.00 0.00 62 1014.7
20260510045535 69 109 0.9 2.6 0.00 0.00 0.00 60 1014.4
20260510045030 69 242 0.0 0.0 0.00 0.00 0.00 58 1014.4
20260510044527 69 237 0.0 0.0 0.00 0.00 0.00 58 1014.5
20260510044025 68 237 0.0 0.0 0.00 0.00 0.00 59 1014.4
20260510043520 67 244 0.0 0.0 0.00 0.00 0.00 60 1014.5
20260510043015 67 268 0.0 0.0 0.00 0.00 0.00 64 1014.6
20260510042510 67 254 0.0 0.0 0.00 0.00 0.00 62 1014.5
20260510042005 66 252 0.0 0.0 0.00 0.00 0.00 64 1014.4
20260510041503 65 263 0.0 0.0 0.00 0.00 0.00 67 1014.5
20260510041000 65 268 0.0 0.0 0.00 0.00 0.00 68 1014.7
20260510040456 64 260 0.0 0.0 0.00 0.00 0.00 70 1014.5
20260510035952 65 267 0.0 0.0 0.00 0.00 0.00 70 1014.2
20260510035449 65 118 0.0 0.0 0.00 0.00 0.00 69 1014.1
20260510034948 65 118 0.0 0.0 0.00 0.00 0.00 68 1014.1
20260510034448 66 111 0.0 0.0 0.00 0.00 0.00 67 1014.0
20260510033943 66 142 0.0 0.0 0.00 0.00 0.00 66 1014.1
20260510033439 67 135 0.0 0.0 0.00 0.00 0.00 62 1014.0
20260510032937 68 123 0.0 0.0 0.00 0.00 0.00 60 1013.9
20260510032434 69 268 0.0 0.0 0.00 0.00 0.00 57 1013.8
20260510031928 69 269 0.0 0.0 0.00 0.00 0.00 57 1013.9
20260510031424 67 268 0.0 0.0 0.00 0.00 0.00 59 1013.7
20260510030920 67 283 0.0 0.0 0.00 0.00 0.00 63 1013.7
20260510030416 67 279 0.0 0.0 0.00 0.00 0.00 63 1013.7
20260510025914 67 348 0.0 0.0 0.00 0.00 0.00 63 1013.7
20260510025411 67 347 0.0 0.0 0.00 0.00 0.00 62 1013.5
20260510024908 67 348 0.0 0.0 0.00 0.00 0.00 63 1013.5
20260510024404 67 347 0.0 0.0 0.00 0.00 0.00 64 1013.7
20260510023900 67 22 0.0 0.0 0.00 0.00 0.00 64 1013.3
20260510023357 67 70 0.0 0.0 0.00 0.00 0.00 63 1013.1
20260510022854 67 88 0.0 0.0 0.00 0.00 0.00 63 1012.9
20260510022353 68 90 0.0 0.0 0.00 0.00 0.00 62 1012.8
20260510021852 68 76 0.0 0.0 0.00 0.00 0.00 60 1012.9
20260510021350 69 10 0.0 0.0 0.00 0.00 0.00 59 1012.9
20260510020847 70 275 0.0 0.0 0.00 0.00 0.00 58 1012.8
20260510020347 71 259 0.0 0.0 0.00 0.00 0.00 56 1012.8
20260510015842 71 253 0.0 0.0 0.00 0.00 0.00 53 1012.4
20260510015339 71 257 0.0 0.0 0.00 0.00 0.00 53 1012.4
20260510014834 71 254 0.0 0.0 0.00 0.00 0.00 53 1012.4
20260510014331 71 254 0.0 0.0 0.00 0.00 0.00 54 1012.1
20260510013827 71 254 0.0 0.0 0.00 0.00 0.00 55 1012.2
20260510013323 71 261 0.0 0.0 0.00 0.00 0.00 57 1012.0
20260510012818 71 259 0.0 0.0 0.00 0.00 0.00 55 1011.7
20260510012318 72 261 0.0 0.0 0.00 0.00 0.00 55 1012.0
20260510011813 73 259 0.0 0.0 0.00 0.00 0.00 55 1012.0
20260510011309 73 255 0.0 0.0 0.00 0.00 0.00 51 1012.0
20260510010806 74 254 0.0 0.0 0.00 0.00 0.00 51 1011.7
20260510010303 74 254 0.0 0.0 0.00 0.00 0.00 50 1011.7
20260510005759 75 256 0.0 0.0 0.00 0.00 0.00 49 1011.6
20260510005255 75 251 0.0 0.0 0.00 0.00 0.00 48 1011.6
20260510004754 76 252 0.0 0.0 0.00 0.00 0.00 47 1011.4
20260510004251 76 253 0.0 0.0 0.00 0.00 0.00 47 1011.5
20260510003748 76 249 0.0 0.0 0.00 0.00 0.00 46 1011.4
20260510003245 77 260 0.0 0.0 0.00 0.00 0.00 45 1011.7
20260510002743 77 257 0.0 0.0 0.00 0.00 0.00 44 1011.4
20260510002241 78 257 0.0 0.0 0.00 0.00 0.00 43 1011.4
20260510001737 78 255 0.0 0.0 0.00 0.00 0.00 42 1011.4
20260510001236 78 260 0.0 0.0 0.00 0.00 0.00 42 1011.3
20260510000732 78 260 0.0 0.0 0.00 0.00 0.00 42 1011.4
20260510000229 78 266 0.0 0.0 0.00 0.00 0.00 41 1011.3
20260509235726 79 251 0.0 0.0 0.00 0.00 0.00 39 1011.6
20260509235222 81 260 0.0 0.0 0.00 0.00 0.00 38 1011.5
20260509234718 81 261 0.0 0.0 0.00 0.00 0.00 38 1011.5
20260509234216 82 262 0.0 0.0 0.00 0.00 0.00 38 1011.5
20260509233714 82 264 0.0 0.0 0.00 0.00 0.00 38 1011.3
20260509233211 82 266 0.0 0.0 0.00 0.00 0.00 35 1011.4
20260509232707 83 260 0.0 0.0 0.00 0.00 0.00 35 1011.6
20260509232204 82 294 0.0 0.0 0.00 0.00 0.00 34 1011.4
20260509231700 82 284 0.0 0.0 0.00 0.00 0.00 33 1011.3
20260509231158 83 281 0.9 0.9 0.00 0.00 0.00 34 1011.6
20260509230655 84 264 0.0 0.0 0.00 0.00 0.00 33 1011.4
20260509230152 84 278 0.0 0.0 0.00 0.00 0.00 32 1011.2
20260509225647 84 271 0.0 0.0 0.00 0.00 0.00 34 1011.4
20260509225143 83 279 0.0 0.0 0.00 0.00 0.00 34 1011.4
20260509224639 82 245 0.0 0.0 0.00 0.00 0.00 34 1011.7
20260509224136 82 227 0.0 0.0 0.00 0.00 0.00 36 1011.5
20260509223632 83 63 0.0 0.0 0.00 0.00 0.00 34 1011.5
20260509223130 82 260 0.0 0.0 0.00 0.00 0.00 35 1011.3
20260509222627 82 247 0.0 0.0 0.00 0.00 0.00 36 1011.5
20260509222122 84 247 0.0 0.0 0.00 0.00 0.00 37 1011.4
20260509221618 84 258 0.0 0.0 0.00 0.00 0.00 35 1011.3
20260509221114 84 254 0.0 0.0 0.00 0.00 0.00 35 1011.4
20260509220610 84 243 0.0 0.0 0.00 0.00 0.00 33 1011.5
20260509220107 85 7 0.0 0.0 0.00 0.00 0.00 32 1011.5
20260509215602 85 357 0.0 0.0 0.00 0.00 0.00 32 1011.6
20260509215100 84 260 0.0 0.0 0.00 0.00 0.00 32 1011.5
20260509214557 84 282 0.9 2.6 0.00 0.00 0.00 30 1011.7
20260509214053 84 277 0.0 0.0 0.00 0.00 0.00 31 1011.5
20260509213549 83 293 0.0 0.0 0.00 0.00 0.00 35 1011.6
20260509213046 83 259 0.0 0.0 0.00 0.00 0.00 34 1011.6
20260509212543 85 255 0.0 0.0 0.00 0.00 0.00 33 1011.7
20260509212040 84 275 0.0 0.0 0.00 0.00 0.00 37 1012.0
20260509211536 84 275 0.0 0.0 0.00 0.00 0.00 35 1011.7
20260509211033 84 253 0.0 0.0 0.00 0.00 0.00 36 1011.4
20260509210530 85 262 0.0 0.0 0.00 0.00 0.00 35 1011.7
20260509210026 83 276 0.0 0.0 0.00 0.00 0.00 36 1011.6
20260509205520 84 276 0.0 0.0 0.00 0.00 0.00 34 1011.7
20260509205016 84 288 0.0 0.9 0.00 0.00 0.00 33 1011.9
20260509204512 84 269 0.0 0.0 0.00 0.00 0.00 34 1012.0
20260509204009 83 277 0.0 0.0 0.00 0.00 0.00 36 1011.9